"TOA5","AWS1","CR1000","7964","CR1000.Std.14","CPU:AWS1_114.CR1","64363","TBL110"
"TIMESTAMP","RECORD","Wind_spd_WVc(1)","Wind_spd_WVc(2)","Air_Temp_Avg","Humidity_Avg","SW_upper_Wm2_Avg","Rain_Tot","Press_Avg","Issui_Tot","Depth_cm","SR50A_Raw","Quality","Ground_Temp_Avg(1)","Ground_Temp_Avg(2)","SW_lower_Wm2_Avg","Albedo_Avg","SWC_per(1)","SWC_per(2)","Period(1)","Period(2)"
"TS","RN","","","","","","","","","","","","","","","","","","",""
"","","WVc","WVc","Avg","Avg","Avg","Tot","Avg","Tot","Smp","Smp","Smp","Avg","Avg","Avg","Avg","Smp","Smp","Smp","Smp"
"2018-05-28 00:00:00",342493,0.594,192.2,12.05,45.09,0,0,865.0329,0,6.682,3.046,290,15.37,14.28,0.02653584,0,48.7,56.41,32.97,34.84
"2018-05-28 00:10:00",342494,0.565,187,12.1,43.46,0,0,865.0665,0,7.532,3.037,279,15.32,14.28,0.05307171,0,48.7,56.41,32.97,34.84
"2018-05-28 00:20:00",342495,0.54,184.7,12.16,42.78,0,0,864.9318,0,7.367,3.04,278,15.29,14.28,0.2009143,0,48.7,56.41,32.97,34.84
"2018-05-28 00:30:00",342496,0.454,194.4,12.5,41.24,0,0,864.8939,0,7.61,3.033,284,15.29,14.27,0.6444422,0,48.65,56.41,32.96,34.84
"2018-05-28 00:40:00",342497,0.504,189.3,12.72,41.16,0,0,864.9086,0,8.07,3.031,298,15.27,14.25,0.4283645,0,48.65,56.41,32.96,34.84
"2018-05-28 00:50:00",342498,0.446,198.6,12.8,41.62,0,0,865.0771,0,8.26,3.025,293,15.24,14.24,0.5534621,0,48.65,56.35,32.96,34.83
"2018-05-28 01:00:00",342499,0.08,208.9,13.51,36.76,0,0,865.1318,0,8.5,3.02,422,15.17,14.24,0.7202589,0,48.7,56.35,32.97,34.83
"2018-05-28 01:10:00",342500,0.109,155.7,13.39,39.01,0,0,865.134,0,7.335,3.038,365,15.16,14.24,0.4321553,0,48.65,56.35,32.96,34.83
"2018-05-28 01:20:00",342501,0.367,191.6,12.34,45.26,0,0,865.3235,0,7.59,3.036,396,15.12,14.27,0,0,48.65,56.35,32.96,34.83
"2018-05-28 01:30:00",342502,0.22,182.6,12.21,46.39,0,0,865.1761,0,2.121,3.093,252,15.07,14.27,0.01137223,0,48.65,56.35,32.96,34.83
"2018-05-28 01:40:00",342503,0.642,181.7,11.79,48.34,0,0,864.9444,0,2.487,3.088,242,15.02,14.28,0,0,48.65,56.35,32.96,34.83
"2018-05-28 01:50:00",342504,0.354,182.1,12.31,46.26,0,0,864.8791,0,6.502,3.045,337,15.04,14.28,0.3449643,0,48.65,56.35,32.96,34.83
"2018-05-28 02:00:00",342505,0.144,183.3,13.1,43.74,0,0,864.8854,0,5.392,3.054,329,14.99,14.28,0.9476956,0,48.65,56.35,32.96,34.83
"2018-05-28 02:10:00",342506,0.509,188.5,12.43,48.64,0,0,864.8581,0,4.938,3.061,291,14.93,14.28,0.09476922,0,48.65,56.35,32.96,34.83
"2018-05-28 02:20:00",342507,0.382,190.1,12.4,49.96,0,0,864.8791,0,5.26,3.059,281,14.96,14.28,0.06823383,0,48.65,56.35,32.96,34.83
"2018-05-28 02:30:00",342508,0.288,190.1,12.51,49.4,0,0,864.8791,0,6.171,3.048,304,14.91,14.28,0.1440511,0,48.65,56.29,32.96,34.82
"2018-05-28 02:40:00",342509,0.352,177.3,12.59,50.4,0,0,864.9108,0,6.19,3.049,286,14.91,14.28,0.1592129,0,48.7,56.29,32.97,34.82
"2018-05-28 02:50:00",342510,0.19,190,12.79,49.12,0,0,865.0729,0,6.677,3.041,321,14.84,14.28,0.4473086,0,48.65,56.29,32.96,34.82
"2018-05-28 03:00:00",342511,0.333,190.3,12.6,51.97,0,0,864.9465,0,7.103,3.041,292,14.81,14.28,0.09476934,0,48.65,56.29,32.96,34.82
"2018-05-28 03:10:00",342512,0.279,180.6,12.45,52.58,0,0,864.7759,0,5.743,3.053,301,14.83,14.27,0.1440404,0,48.65,56.29,32.96,34.82
"2018-05-28 03:20:00",342513,0.311,184.1,12.67,51.17,0,0,864.8538,0,4.853,3.061,296,14.74,14.26,0.3942091,0,48.65,56.29,32.96,34.82
"2018-05-28 03:30:00",342514,0.265,295.1,13.4,45.78,0.01965663,0,864.9108,0,1.845,3.085,220,14.75,14.26,1.091678,0.45,48.7,56.29,32.97,34.82
"2018-05-28 03:40:00",342515,0.045,96.5,13.17,49.61,0,0,865.0834,0,6.707,3.044,286,14.72,14.25,0.2312254,0,48.65,56.29,32.96,34.82
"2018-05-28 03:50:00",342516,0.011,230.1,12.91,49.14,0,0,865.3404,0,6.936,3.04,304,14.73,14.23,0.09855285,0,48.65,56.29,32.96,34.82
"2018-05-28 04:00:00",342517,0.037,142.2,12.57,52.04,0,0,865.4879,0,2.941,3.08,252,14.65,14.21,0.003790324,0,48.65,56.29,32.96,34.82
"2018-05-28 04:10:00",342518,0.216,132.3,12.32,55.91,0,0,865.6205,0,1.592,3.097,237,14.62,14.2,0.05685471,0,48.65,56.23,32.96,34.8
"2018-05-28 04:20:00",342519,0.246,104.9,11.76,59.24,0,0,865.7216,0,0.62,3.106,252,14.61,14.19,0,0,48.65,56.23,32.96,34.8
"2018-05-28 04:30:00",342520,0.069,4.639,12.17,57.24,0,0,865.8859,0,0.335,3.108,234,14.56,14.17,0.2577464,0,48.65,56.23,32.96,34.8
"2018-05-28 04:40:00",342521,0.064,199.4,12.38,57.6,0,0,865.8901,0,-0.966,3.12,215,14.59,14.14,0.4510753,0,48.65,56.23,32.96,34.8
"2018-05-28 04:50:00",342522,0.304,140.1,11.85,61.5,0.7705063,0,865.8311,0,-2.132,3.136,196,14.57,14.13,0.08718172,0.003,48.65,56.23,32.96,34.8
"2018-05-28 05:00:00",342523,0.278,175.6,11.78,61.87,5.346416,0,865.848,0,0.655,3.107,245,14.54,14.12,1.133332,0.209,48.65,56.23,32.96,34.8
"2018-05-28 05:10:00",342524,0.249,194.8,11.96,60.74,10.473,0,865.9701,0,2.107,3.089,225,14.5,14.15,2.316013,0.22,48.65,56.23,32.96,34.8
"2018-05-28 05:20:00",342525,0.216,90.4,12.44,59.37,13.86603,0,866.2397,0,2.052,3.093,224,14.49,14.17,3.081764,0.222,48.65,56.23,32.96,34.8
"2018-05-28 05:30:00",342526,0.263,127.8,11.59,65.6,14.57401,0,866.3829,0,2.22,3.093,221,14.49,14.2,2.259257,0.154,48.65,56.23,32.96,34.8
"2018-05-28 05:40:00",342527,0.498,147.7,11.6,64.36,24.60364,0,866.1955,0,2.068,3.094,220,14.45,14.18,4.332841,0.177,48.65,56.23,32.96,34.8
"2018-05-28 05:50:00",342528,0.809,153.2,12.21,57.96,44.77904,0,866.0186,0,1.906,3.09,220,14.48,14.14,8.324266,0.185,48.65,56.23,32.96,34.8
"2018-05-28 06:00:00",342529,0.926,143.6,12.9,53.48,55.06226,0,865.9343,0,2.638,3.081,241,14.43,14.13,10.01464,0.182,48.65,56.18,32.96,34.79
"2018-05-28 06:10:00",342530,0.59,136.4,13.19,51.64,81.24648,0,866.0986,0,1.485,3.09,202,14.39,14.12,14.65006,0.18,48.65,56.18,32.96,34.79
"2018-05-28 06:20:00",342531,0.4,135.1,13.69,49.9,137.2197,0,866.126,0,1.261,3.09,202,14.36,14.05,26.03819,0.19,48.65,56.18,32.96,34.79
"2018-05-28 06:30:00",342532,0.326,135.4,14.16,49.48,160.4796,0,865.9365,0,1.233,3.088,202,14.34,14,30.55393,0.191,48.65,56.18,32.96,34.79
"2018-05-28 06:40:00",342533,0.404,142,14.19,48.69,125.8295,0,865.8901,0,1.288,3.088,205,14.33,14,22.54874,0.179,48.65,56.18,32.96,34.79
"2018-05-28 06:50:00",342534,0.504,134.2,14.13,50.97,157.1588,0,865.8459,0,2.426,3.076,222,14.3,13.99,32.71181,0.206,48.65,56.23,32.96,34.8
"2018-05-28 07:00:00",342535,0.873,107.4,14.83,48.91,192.5457,0,865.5004,0,0.835,3.085,206,14.26,13.98,42.49615,0.221,48.7,56.18,32.97,34.79
"2018-05-28 07:10:00",342536,0.738,10.43,15,46.17,179.7833,0,865.5763,0,3.246,3.065,224,14.24,13.98,37.31948,0.204,48.7,56.18,32.97,34.79
"2018-05-28 07:20:00",342537,0.219,301.6,15.22,47.64,208.4585,0,865.7953,0,1.278,3.083,223,14.24,13.98,40.75277,0.193,48.65,56.23,32.96,34.8
"2018-05-28 07:30:00",342538,0.037,342.6,15.31,50.9,216.4488,0,865.8838,0,318,0,0,14.24,13.97,40.13506,0.185,48.65,56.18,32.96,34.79
"2018-05-28 07:40:00",342539,0.152,296.2,14.95,56.6,242.1725,0,865.9512,0,3.357,3.066,352,14.23,13.97,41.7532,0.172,48.65,56.18,32.96,34.79
"2018-05-28 07:50:00",342540,0.085,356.3,14.58,61.43,244.0472,0,866.145,0,7.621,3.024,433,14.23,13.97,37.84997,0.155,48.65,56.18,32.96,34.79
"2018-05-28 08:00:00",342541,0.428,21.52,14.22,60.75,324.2604,0,866.1428,0,8.15,3.02,283,14.24,13.97,50.77611,0.157,48.65,56.18,32.96,34.79
"2018-05-28 08:10:00",342542,0.534,114.1,14.7,58.64,350.4362,0,865.9975,0,-31.29,3.401,270,14.23,13.94,57.5935,0.162,48.59,56.18,32.95,34.79
"2018-05-28 08:20:00",342543,0.672,73.92,15.77,54.79,551.5253,0,865.8901,0,7.788,3.016,249,14.19,13.96,92.7112,0.167,48.59,56.18,32.95,34.79
"2018-05-28 08:30:00",342544,0.379,39.35,16.16,55.43,354.9245,0,865.8901,0,7.785,3.014,252,14.2,13.97,57.40402,0.162,48.65,56.12,32.96,34.78
"2018-05-28 08:40:00",342545,0.311,306.4,16.13,56.34,534.2046,0,865.9027,0,1.658,3.071,249,14.23,13.91,90.29347,0.167,48.65,56.18,32.96,34.79
"2018-05-28 08:50:00",342546,0.352,0.63,16.72,51.82,564.118,0,865.8922,0,-1.172,3.098,294,14.32,13.91,92.90826,0.164,48.65,56.18,32.96,34.79
"2018-05-28 09:00:00",342547,0.281,277.3,16.69,52.83,451.7629,0,866.1356,0,0.365,3.084,265,14.32,13.87,72.72514,0.16,48.59,56.12,32.95,34.78
"2018-05-28 09:10:00",342548,0.217,54.75,16.74,56.42,406.1952,0,866.3143,0,0.777,3.08,233,14.32,13.83,64.48289,0.157,48.65,56.18,32.96,34.79
"2018-05-28 09:20:00",342549,0.2,346.9,16.07,59.14,248.2605,0,866.3624,0,9.81,2.997,387,14.32,13.86,36.64869,0.147,48.59,56.18,32.95,34.79
"2018-05-28 09:30:00",342550,0.121,27.99,15.76,61.43,278.5945,0,866.398,0,12.41,2.972,375,14.31,13.87,42.48837,0.152,48.65,56.18,32.96,34.79
"2018-05-28 09:40:00",342551,0.273,0.677,15.74,61.75,286.5376,0,866.5895,0,11.31,2.984,338,14.25,13.89,44.23156,0.154,48.59,56.12,32.95,34.78
"2018-05-28 09:50:00",342552,0.21,16.33,15.46,61.36,277.3171,0,866.7503,0,-28.11,3.367,201,14.28,13.89,43.19323,0.154,48.59,56.12,32.95,34.78
"2018-05-28 10:00:00",342553,0.33,45.85,15.44,62.17,268.018,0,866.9182,0,-31.7,3.404,230,14.39,13.87,41.70393,0.155,48.59,56.12,32.95,34.78
"2018-05-28 10:10:00",342554,0.49,71.63,15.03,63.47,271.7243,0,867.1049,0,0.094,3.095,209,14.4,13.86,43.29554,0.159,48.59,56.12,32.95,34.78
"2018-05-28 10:20:00",342555,0.372,56.14,15.33,64.38,548.955,0,867.0716,0,-0.971,3.1,210,14.36,13.85,94.26871,0.171,48.59,56.12,32.95,34.78
"2018-05-28 10:30:00",342556,0.523,44.57,15.68,64.15,428.2441,0,867.1496,0,0.17,3.091,209,14.4,13.83,69.53435,0.16,48.54,56.12,32.93,34.78
"2018-05-28 10:40:00",342557,0.424,34.91,15.64,64.78,394.8916,0,867.1138,0,1.174,3.081,227,14.48,13.78,63.44456,0.159,48.54,56.12,32.93,34.78
"2018-05-28 10:50:00",342558,0.245,96.5,15.37,65.33,349.2689,0,866.9095,0,2.021,3.073,227,14.44,13.76,56.24821,0.159,48.54,56.12,32.93,34.78
"2018-05-28 11:00:00",342559,0.489,110.9,15.97,64.43,495.1454,0,866.9306,0,1.088,3.083,220,14.52,13.74,81.52068,0.161,48.59,56.12,32.95,34.78
"2018-05-28 11:10:00",342560,0.603,121.3,15.37,63.68,341.7817,0,866.9011,0,0.827,3.086,222,14.58,13.76,54.66797,0.158,48.59,56.12,32.95,34.78
"2018-05-28 11:20:00",342561,0.597,128.4,15.64,63.46,631.2512,0,866.9011,0,0.493,3.086,216,14.55,13.8,109.7566,0.171,48.54,56.12,32.93,34.78
"2018-05-28 11:30:00",342562,0.628,147.7,16.4,60.38,622.2666,0,866.9011,0,1.753,3.068,314,14.6,13.73,105.9064,0.169,48.54,56.12,32.93,34.78
"2018-05-28 11:40:00",342563,0.816,115.1,16.27,58.34,318.5733,0,866.7684,0,-2.532,3.114,221,14.64,13.75,51.33696,0.161,48.54,56.06,32.93,34.76
"2018-05-28 11:50:00",342564,0.474,113,16.35,56.83,388.6189,0,866.5936,0,2.908,3.06,363,14.61,13.78,64.77468,0.166,48.48,56.06,32.92,34.76
"2018-05-28 12:00:00",342565,0.618,109.9,16.73,55.78,549.4777,0,866.4272,0,-1.038,3.096,258,14.74,13.77,93.1849,0.167,48.54,56.06,32.93,34.76
"2018-05-28 12:10:00",342566,1.012,123.4,16.46,53.77,485.1978,0,866.4756,0,0.413,3.084,225,14.67,13.76,82.22175,0.169,48.48,56.06,32.92,34.76
"2018-05-28 12:20:00",342567,0.766,121,16.97,52.55,579.8981,0,866.3977,0,0.563,3.08,206,14.75,13.74,99.83934,0.17,48.54,56.06,32.93,34.76
"2018-05-28 12:30:00",342568,0.968,135.4,16.86,52.58,573.4564,0,866.3851,0,0.373,3.083,233,14.76,13.72,97.70961,0.169,48.48,56.06,32.92,34.76
"2018-05-28 12:40:00",342569,0.769,112.2,16.81,52.73,443.7805,0,866.3331,0,2.949,3.058,221,14.82,13.74,75.21487,0.168,48.48,56.06,32.92,34.76
"2018-05-28 12:50:00",342570,0.73,78.81,17.25,52.28,516.0388,0,866.4053,0,1.325,3.071,206,14.87,13.76,87.15195,0.167,48.43,56.06,32.9,34.76
"2018-05-28 13:00:00",342571,0.608,95.9,17.41,53.14,525.6287,0,866.3928,0,2.421,3.059,205,14.93,13.72,90.50569,0.169,48.48,56,32.92,34.75
"2018-05-28 13:10:00",342572,0.681,97,17.76,50.99,575.6848,0,866.389,0,1.955,3.061,216,14.94,13.72,98.11131,0.17,48.48,56.06,32.92,34.76
"2018-05-28 13:20:00",342573,0.242,142.3,18.28,53.13,611.7688,0,866.3867,0,-0.586,3.084,229,15.01,13.71,104.076,0.169,48.43,56,32.9,34.75
"2018-05-28 13:30:00",342574,0.397,126.2,18.13,56.84,362.5768,0,866.3815,0,1.655,3.063,222,15.02,13.71,56.05873,0.154,48.43,56,32.9,34.75
"2018-05-28 13:40:00",342575,0.735,142.5,17.68,55.66,643.16,0,866.3746,0,1.175,3.072,212,15.04,13.71,108.3772,0.166,48.43,56,32.9,34.75
"2018-05-28 13:50:00",342576,0.798,130.2,17.46,51.77,721.6911,0,866.368,0,-34.74,3.421,279,15.08,13.7,125.0095,0.171,48.43,56,32.9,34.75
"2018-05-28 14:00:00",342577,0.782,104,17.4,51.27,417.6205,0,866.377,0,2.232,3.059,218,15.15,13.71,69.68972,0.166,48.38,56,32.89,34.75
"2018-05-28 14:10:00",342578,0.396,60.09,18.32,50.81,616.0214,0,866.4511,0,1.498,3.062,266,15.19,13.71,104.5308,0.169,48.43,56,32.9,34.75
"2018-05-28 14:20:00",342579,0.536,83.9,18.76,50.95,641.5721,0,866.3721,0,-35.17,3.418,370,15.24,13.73,106.1376,0.165,48.38,56,32.89,34.75
"2018-05-28 14:30:00",342580,0.314,91.2,18.65,53.76,480.7645,0,866.2932,0,12.91,2.952,326,15.29,13.76,75.73026,0.157,48.38,55.95,32.89,34.74
"2018-05-28 14:40:00",342581,0.497,141.3,18.63,54.15,601.6248,0,866.1722,0,-1.913,3.095,261,15.34,13.81,90.84675,0.15,48.38,55.95,32.89,34.74
"2018-05-28 14:50:00",342582,0.169,130.2,18.65,54.73,463.9311,0,866.1528,0,0.375,3.074,296,15.33,13.81,64.39952,0.139,48.32,55.95,32.88,34.74
"2018-05-28 15:00:00",342583,0.431,118.7,18.25,54.3,479.833,0,866.0333,0,-1.675,3.095,208,15.38,13.83,60.54555,0.126,48.32,55.95,32.88,34.74
"2018-05-28 15:10:00",342584,0.418,160.2,18.31,57.75,466.5683,0,865.8879,0,1.527,3.064,249,15.42,13.84,57.01748,0.123,48.32,55.95,32.88,34.74
"2018-05-28 15:20:00",342585,0.497,131.7,17.99,57.03,321.411,0,865.8528,0,-3.367,3.113,192,15.47,13.83,46.36886,0.144,48.32,55.95,32.88,34.74
"2018-05-28 15:30:00",342586,0.218,156,18.01,56.24,272.9427,0,865.921,0,0.445,3.077,228,15.54,13.84,42.43911,0.155,48.27,55.95,32.86,34.74
"2018-05-28 15:40:00",342587,0.287,58.32,17.87,57.9,243.5717,0,865.9383,0,2.209,3.059,336,15.58,13.85,38.42598,0.157,48.27,55.95,32.86,34.74
"2018-05-28 15:50:00",342588,0.183,249,17.5,61.29,186.9048,0,866.1165,0,0.857,3.076,250,15.63,13.85,28.41779,0.152,48.27,55.95,32.86,34.74
"2018-05-28 16:00:00",342589,0.225,276.3,17.08,63.51,225.6496,0,866.1358,0,1.865,3.066,339,15.63,13.85,35.90593,0.158,48.27,55.89,32.86,34.72
"2018-05-28 16:10:00",342590,0.152,269.2,17.06,65.34,181.3277,0,866.1365,0,5.305,3.034,260,15.72,13.85,27.70915,0.153,48.27,55.89,32.86,34.72
"2018-05-28 16:20:00",342591,0.301,37.4,16.87,67.82,156.3508,0,866.2805,0,4.321,3.044,256,15.73,13.86,23.91961,0.153,48.27,55.89,32.86,34.72
"2018-05-28 16:30:00",342592,0.69,49.7,16.53,69.65,148.5727,0,866.4153,0,-2.824,3.118,205,15.71,13.87,22.80169,0.153,48.21,55.89,32.85,34.72
"2018-05-28 16:40:00",342593,0.405,90.4,15.92,72.24,148.8871,0,866.549,0,318,0,0,15.73,13.89,23.87792,0.16,48.27,55.89,32.86,34.72
"2018-05-28 16:50:00",342594,0.499,72.73,15.73,73.11,130.6427,0,866.4967,0,-32.06,3.405,251,15.8,13.89,20.67954,0.157,48.21,55.89,32.85,34.72
"2018-05-28 17:00:00",342595,0.258,77.03,15.48,74.15,100.1948,0,866.3956,0,7.405,3.022,403,15.84,13.89,15.73419,0.156,48.16,55.89,32.84,34.72
"2018-05-28 17:10:00",342596,0.377,133.8,15.25,75.03,84.64266,0,866.5009,0,1.998,3.076,227,15.88,13.89,13.10803,0.153,48.16,55.89,32.84,34.72
"2018-05-28 17:20:00",342597,0.44,131.9,15.04,75.43,68.92544,0,866.4988,0,4.1,3.056,257,15.89,13.89,11.10336,0.16,48.16,55.89,32.84,34.72
"2018-05-28 17:30:00",342598,0.445,134.3,14.99,75.98,117.9007,0,866.3956,0,2.97,3.067,225,15.89,13.89,20.27027,0.172,48.16,55.89,32.84,34.72
"2018-05-28 17:40:00",342599,0.31,103.2,15.06,75.51,81.15257,0,866.6104,0,1.531,3.081,234,15.89,13.9,12.8655,0.158,48.16,55.83,32.84,34.71
"2018-05-28 17:50:00",342600,0.267,82.2,14.99,75.08,43.37072,0,866.6484,0,0.45,3.092,247,15.89,13.93,5.756318,0.132,48.16,55.83,32.84,34.71
"2018-05-28 18:00:00",342601,0.274,121.5,14.71,74.76,39.21247,0,866.6293,0,0.72,3.091,206,15.89,13.96,5.506208,0.14,48.16,55.89,32.84,34.72
"2018-05-28 18:10:00",342602,0.153,157.7,14.61,73.56,30.64838,0,866.7305,0,0.894,3.09,202,15.89,13.95,4.600507,0.15,48.16,55.89,32.84,34.72
"2018-05-28 18:20:00",342603,0.092,171,14.41,74.72,27.5238,0,866.8632,0,0.991,3.09,201,15.88,13.94,4.361765,0.158,48.11,55.89,32.82,34.72
"2018-05-28 18:30:00",342604,0,0,14.22,76.1,25.71587,0,866.8737,0,1.236,3.089,200,15.82,13.94,4.365555,0.17,48.16,55.89,32.84,34.72
"2018-05-28 18:40:00",342605,0,0,13.95,77.69,15.391,0,866.8442,0,0.765,3.095,204,15.84,13.97,2.618575,0.169,48.11,55.83,32.82,34.71
"2018-05-28 18:50:00",342606,0,0,13.79,77.28,14.52634,0,866.8885,0,0.915,3.094,221,15.86,13.99,3.008898,0.209,48.11,55.83,32.82,34.71
"2018-05-28 19:00:00",342607,0,0,13.69,77.7,4.893207,0,866.9011,0,1.65,3.088,236,15.8,13.98,1.231602,0.262,48.11,55.83,32.82,34.71
"2018-05-28 19:10:00",342608,0,0,13.29,79.28,0,0,866.899,0,14.62,2.963,360,15.82,13.98,0,0,48.11,55.83,32.82,34.71
"2018-05-28 19:20:00",342609,0,0,13.39,73.35,0,0,866.9411,0,1.933,3.085,239,15.82,13.98,0.16674,0,48.05,55.83,32.81,34.71
"2018-05-28 19:30:00",342610,0,0,13.3,74.37,0,0,867.0948,0,0.43,3.102,227,15.79,14,0.0682118,0,48.11,55.83,32.82,34.71
"2018-05-28 19:40:00",342611,0,0,12.89,77.14,0,0,867.1686,0,0.359,3.106,201,15.72,14.05,0.02652718,0,48.11,55.83,32.82,34.71
"2018-05-28 19:50:00",342612,0,0,12.51,76.73,0,0,867.3856,0,0.587,3.104,206,15.75,14.07,0,0,48.05,55.83,32.81,34.71
"2018-05-28 20:00:00",342613,0,0,12.25,76.92,0,0,867.5645,0,0.85,3.103,209,15.72,14.08,0,0,48.05,55.83,32.81,34.71
"2018-05-28 20:10:00",342614,0.118,177.6,12.03,77.85,0,0,867.4403,0,0.463,3.11,205,15.68,14.09,0,0,48.05,55.77,32.81,34.7
"2018-05-28 20:20:00",342615,0.305,184.9,11.63,79.89,0,0,867.6593,0,1.78,3.097,215,15.68,14.11,0,0,48.05,55.77,32.81,34.7
"2018-05-28 20:30:00",342616,0.348,96.5,11.85,84.4,0,0,867.6425,0,1.529,3.097,213,15.69,14.13,0.4017934,0,48.05,55.77,32.81,34.7
"2018-05-28 20:40:00",342617,0.416,170.3,11.66,85.2,0,0,867.6741,0,1.504,3.1,221,15.65,14.14,0.02653399,0,48.05,55.77,32.81,34.7
"2018-05-28 20:50:00",342618,0.3,176,11.38,88.6,0,0,867.7372,0,0.675,3.11,205,15.63,14.16,0,0,48.05,55.77,32.81,34.7
"2018-05-28 21:00:00",342619,0.23,37.22,11.97,84.2,0,0,867.8468,0,-0.504,3.113,217,15.63,14.18,1.15241,0,48.05,55.77,32.81,34.7
"2018-05-28 21:10:00",342620,0.384,183.3,11.55,84.9,0,0,867.9121,0,0.499,3.111,209,15.62,14.21,0.1288881,0,48.05,55.77,32.81,34.7
"2018-05-28 21:20:00",342621,0.256,191.6,11.36,84.4,0,0,868.0679,0,0.319,3.113,224,15.55,14.23,0.1288884,0,48.05,55.72,32.81,34.68
"2018-05-28 21:30:00",342622,0,0,11.56,80.6,0,0,867.9626,0,-0.176,3.115,217,15.51,14.24,0.4056195,0,48.11,55.72,32.82,34.68
"2018-05-28 21:40:00",342623,0.082,152.3,11.67,80.2,0,0,868.2196,0,0.98,3.107,219,15.47,14.24,0.5003904,0,48.05,55.72,32.81,34.68
"2018-05-28 21:50:00",342624,0.284,186.6,10.83,85.5,0,0,868.1775,0,1.293,3.107,208,15.46,14.24,0,0,48,55.72,32.8,34.68
"2018-05-28 22:00:00",342625,0.282,176.4,10.56,88.1,0,0,868.108,0,2.589,3.095,231,15.43,14.26,0,0,48.05,55.72,32.81,34.68
"2018-05-28 22:10:00",342626,0.25,132.8,10.78,95.4,0,0,867.9921,0,1.731,3.102,227,15.38,14.27,0.3373844,0,48.05,55.72,32.81,34.68
"2018-05-28 22:20:00",342627,0.515,112,11.62,95.4,0,0,867.9121,0,1.056,3.102,261,15.31,14.31,1.190323,0,48.05,55.72,32.81,34.68
"2018-05-28 22:30:00",342628,1.071,49.52,12.23,82.2,0,0,867.9184,0,2.726,3.084,234,15.31,14.29,1.17895,0,48,55.72,32.8,34.68
"2018-05-28 22:40:00",342629,0.274,355.6,12.19,81.7,0,0,868.0701,0,1.386,3.099,221,15.31,14.28,0.3260119,0,48,55.72,32.8,34.68
"2018-05-28 22:50:00",342630,0.15,174.5,11.42,87.3,0,0,868.03,0,0.435,3.114,211,15.27,14.28,0,0,48,55.72,32.8,34.68
"2018-05-28 23:00:00",342631,0.254,188.1,10.66,96.5,0,0,868.0363,0,0.371,3.117,207,15.23,14.29,0,0,48,55.72,32.8,34.68
"2018-05-28 23:10:00",342632,0.349,179.7,10.31,100,0,0,868.1227,0,1.176,3.111,222,15.18,14.31,0,0,48.05,55.66,32.81,34.67
"2018-05-28 23:20:00",342633,0.341,184.7,10.05,100,0,0,868.1663,0,1.07,3.113,241,15.14,14.32,0,0,48,55.66,32.8,34.67
"2018-05-28 23:30:00",342634,0.303,189.6,9.95,100,0,0,867.9902,0,1.909,3.105,233,15.11,14.33,0,0,48.05,55.66,32.81,34.67
"2018-05-28 23:40:00",342635,0.163,189.5,10.03,99.3,0,0,868.0857,0,1.788,3.105,225,15.05,14.33,0.1933327,0,48,55.66,32.8,34.67
"2018-05-28 23:50:00",342636,0.145,188.3,10.08,98.1,0,0,868.0705,0,1.555,3.108,225,15.07,14.32,0.4359462,0,48.05,55.66,32.81,34.67
